[[{"header":{"parameterUnit":"m.s-1","parameterCategory":2,"la1":30.2991,"la2":30.254,"lo1":-89.0895,"lo2":-89.0444,"dy":0.0017,"dx":0.0017,"nx":28,"ny":28,"refTime":"2023-09-25T21:00:00:Z","depth":"0","parameterNumber":2,"parameterNumberName":"U-component_of_CURRENTS"},"data":[0,0,0,0,0,0,0,0,0,0,0,0,0,0,0,0,0,0,0,0,0,0,0,0,0,0,0,0,0,0,0,0,0,0,0,0,0,0,0,0,0,0,0,0,0,0,0,0,0,0,0,0,0,0,0,0,0,0,-0.2202,-0.2202,0,-0.2197,-0.2196,-0.2196,-0.2181,-0.2181,-0.2181,-0.2181,-0.2109,-0.2107,-0.2105,0,0,0,0,0,0,0,0,0,0,0,0,0,-0.2189,-0.2189,-0.2202,-0.2202,-0.2202,-0.2197,-0.2196,-0.2196,-0.2181,-0.2181,-0.2181,-0.2181,-0.2109,-0.2107,-0.2105,0,0,0,0,0,0,0,0,0,0,0,0,0,-0.2188,-0.2189,-0.2202,-0.2196,-0.2196,-0.2197,-0.2196,-0.2196,-0.2181,-0.2181,-0.2181,-0.2181,-0.211,-0.2107,-0.2105,-0.2091,0,0,-0.2096,-0.2095,0,0,0,0,0,0,0,0,-0.2188,-0.2188,-0.2197,-0.2196,-0.2196,-0.2191,-0.2165,-0.2158,-0.2181,-0.2184,-0.2181,-0.2181,-0.2132,-0.2127,-0.2124,-0.2087,-0.2084,-0.2096,-0.2094,-0.2093,-0.2092,0,0,0,0,0,0,0,-0.2188,-0.2188,-0.2197,-0.2197,-0.2196,-0.219,-0.219,-0.2164,-0.2156,-0.2184,-0.2183,-0.2187,-0.2131,-0.2127,-0.2122,-0.2083,-0.2096,-0.2094,-0.2092,-0.2091,-0.2061,-0.2062,0,0,0,0,0,0,-0.2194,-0.2188,-0.2198,-0.2197,-0.2194,-0.2191,-0.219,-0.2191,-0.2157,-0.2153,-0.2187,-0.2186,-0.2132,-0.2125,-0.212,-0.2119,-0.2093,-0.2091,-0.2089,-0.206,-0.2061,-0.2062,0,0,0,0,0,0,-0.2194,-0.2195,-0.2198,-0.2195,-0.2195,-0.2191,-0.2193,-0.2191,-0.2186,-0.2161,-0.2155,-0.2184,-0.2131,-0.2123,-0.2105,-0.2115,-0.2089,-0.2087,-0.2059,-0.206,-0.2062,-0.2106,0,0,0,0,0,0,-0.2194,-0.2195,-0.2193,-0.2195,-0.2195,-0.2198,-0.2193,-0.2191,-0.219,-0.2189,-0.2156,-0.215,-0.2131,-0.2109,-0.2102,-0.2111,-0.2085,-0.2058,-0.206,-0.2061,-0.2104,-0.2109,-0.2113,0,0,0,0,0,-0.2193,-0.2184,-0.2193,-0.2194,-0.2195,-0.2198,-0.2197,-0.2192,-0.219,-0.2187,-0.2173,-0.2151,-0.2114,-0.2107,-0.2099,-0.2107,-0.2057,-0.2059,-0.2061,-0.2101,-0.2108,-0.2113,0,0,0,0,0,0,-0.217,-0.2182,-0.2192,-0.2186,-0.2196,-0.2196,-0.2186,-0.2193,-0.2181,-0.2174,-0.2153,-0.2146,-0.2136,-0.2116,-0.2109,-0.2106,-0.2085,-0.2086,-0.2119,-0.2124,-0.2129,-0.2148,-0.2082,0,0,0,0,0,-0.2169,-0.2166,-0.2184,-0.2177,-0.2181,-0.2187,-0.2186,-0.219,-0.2183,-0.2177,-0.216,-0.2144,-0.2138,-0.2126,-0.2111,-0.2101,-0.2115,-0.2105,-0.211,-0.2114,-0.2125,-0.2167,-0.2177,-0.2068,-0.2068,-0.2068,0,0,-0.2156,-0.2163,-0.216,-0.2173,-0.2174,-0.2189,-0.2184,-0.2182,-0.2201,-0.217,-0.217,-0.2155,-0.214,-0.2137,-0.2131,-0.2119,-0.2153,-0.2116,-0.212,-0.2129,-0.217,-0.218,-0.219,-0.207,-0.2069,-0.2069,0,0,-0.2134,-0.2137,-0.2135,-0.2151,-0.2165,-0.2175,-0.2179,-0.2186,-0.2192,-0.2197,-0.2187,-0.2189,-0.216,-0.2167,-0.2165,-0.2188,-0.2178,-0.2172,-0.2207,-0.2247,-0.2257,-0.2265,-0.2302,-0.2314,-0.2173,-0.2173,-0.2173,0,-0.2121,-0.2127,-0.2133,-0.2148,-0.2165,-0.2174,-0.2192,-0.2202,-0.2205,-0.222,-0.2201,-0.2206,-0.2186,-0.2212,-0.2217,-0.22,-0.2215,-0.2184,-0.2255,-0.2263,-0.2271,-0.2307,-0.232,-0.2175,-0.2175,-0.2175,-0.2175,0,-0.211,-0.2124,-0.212,-0.2151,-0.217,-0.2177,-0.2211,-0.2226,-0.2234,-0.2252,-0.2274,-0.2258,-0.2267,-0.226,-0.224,-0.2285,-0.2275,-0.2258,-0.2242,-0.2285,-0.232,-0.2332,-0.2179,-0.2178,-0.2177,-0.2177,0,0,-0.2062,-0.2105,-0.2107,-0.2134,-0.2176,-0.219,-0.2231,-0.2274,-0.2309,-0.2312,-0.2358,-0.235,-0.2344,-0.2343,-0.2325,-0.2352,-0.2416,-0.2323,-0.2324,-0.2363,-0.2503,-0.2477,-0.2487,-0.2405,-0.2407,-0.2409,-0.2507,0,-0.2055,-0.2079,-0.2113,-0.2152,-0.217,-0.2219,-0.2263,-0.2308,-0.2338,-0.2381,-0.2394,-0.2416,-0.2376,-0.2378,-0.2403,-0.241,-0.2448,-0.2391,-0.2452,-0.2454,-0.2429,-0.25,-0.2255,-0.2319,-0.2518,-0.252,-0.2521,0,-0.2038,-0.2062,-0.2091,-0.2168,-0.2183,-0.2217,-0.2298,-0.2339,-0.2414,-0.2438,-0.2473,-0.248,-0.252,-0.2478,-0.2538,-0.2499,-0.2508,-0.2516,-0.252,-0.2489,-0.245,-0.2307,-0.2333,-0.2162,-0.254,-0.2538,-0.2537,0,-0.1988,-0.2052,-0.2073,-0.2097,-0.2181,-0.2219,-0.2268,-0.235,-0.2407,-0.2474,-0.2517,-0.2558,-0.2581,-0.2609,-0.261,-0.2581,-0.2679,-0.2645,-0.264,-0.2638,-0.244,-0.2417,-0.231,-0.2708,-0.2708,-0.2708,-0.2708,0,-0.1961,-0.1982,-0.2055,-0.2065,-0.2138,-0.2195,-0.228,-0.2336,-0.2426,-0.2492,-0.2533,-0.2583,-0.2613,-0.2662,-0.2658,-0.2689,-0.2723,-0.2672,-0.2672,-0.2449,-0.2427,-0.2277,-0.2272,-0.2711,-0.2711,-0.271,-0.2709,0,-0.1901,-0.1937,-0.1981,-0.2068,-0.2112,-0.216,-0.2302,-0.2361,-0.2435,-0.2524,-0.2548,-0.2626,-0.2677,-0.2713,-0.2763,-0.2752,-0.2699,-0.2783,-0.2521,-0.249,-0.2327,-0.2336,-0.2402,-0.2359,-0.281,-0.281,-0.281,0,-0.1872,-0.1876,-0.1979,-0.2031,-0.2076,-0.2172,-0.225,-0.2355,-0.2415,-0.2539,-0.257,-0.2655,-0.2693,-0.2776,-0.2738,-0.276,-0.2693,-0.2579,-0.2489,-0.2307,-0.2317,-0.2366,-0.2328,-0.2242,-0.2237,-0.2233,-0.223,0,-0.1824,-0.185,-0.1892,-0.1992,-0.2077,-0.2186,-0.2284,-0.2335,-0.2442,-0.2503,-0.257,-0.2614,-0.2668,-0.2554,-0.2584,-0.2573,-0.243,-0.2508,-0.2364,-0.1922,-0.1922,-0.1879,-0.22,-0.2197,-0.22,-0.2202,-0.2204,-0.2206,-0.1794,-0.1812,-0.1859,-0.1949,-0.206,-0.2146,-0.2167,-0.2258,-0.2323,-0.2323,-0.2459,-0.238,-0.2283,-0.2274,-0.2286,-0.2036,-0.2265,-0.1909,-0.1957,-0.204,-0.1931,-0.2206,-0.218,-0.2183,-0.2186,-0.2188,-0.219,0,-0.1743,-0.1752,-0.1822,-0.1907,-0.1974,-0.2058,-0.2149,-0.2104,-0.2098,-0.2092,-0.2103,-0.1865,-0.1731,-0.1638,-0.1444,-0.1408,-0.1427,-0.1391,-0.1304,-0.1314,-0.1529,-0.1421,-0.1172,-0.1173,-0.1173,-0.1173,-0.1173,-0.1173,-0.1712,-0.171,-0.1725,-0.1778,-0.1842,-0.1822,-0.1827,-0.1781,-0.1717,-0.1527,-0.133,-0.1292,-0.1144,-0.1039,-0.0853,-0.0861,-0.085,-0.0893,-0.104,-0.1017,-0.1064,-0.1109,-0.0997,-0.0664,-0.0664,-0.0666,-0.0666,-0.0666]},{"header":{"parameterUnit":"m.s-1","parameterCategory":2,"la1":30.2991,"la2":30.254,"lo1":-89.0895,"lo2":-89.0444,"dy":0.0017,"dx":0.0017,"nx":28,"ny":28,"refTime":"2023-09-25T21:00:00:Z","depth":"0","parameterNumber":3,"parameterNumberName":"V-component_of_CURRENTS"},"data":[0,0,0,0,0,0,0,0,0,0,0,0,0,0,0,0,0,0,0,0,0,0,0,0,0,0,0,0,0,0,0,0,0,0,0,0,0,0,0,0,0,0,0,0,0,0,0,0,0,0,0,0,0,0,0,0,0,0,-0.0656,-0.0656,0,-0.0603,-0.0602,-0.0601,-0.0563,-0.0563,-0.0563,-0.0563,-0.0447,-0.0444,-0.0441,0,0,0,0,0,0,0,0,0,0,0,0,0,-0.0676,-0.0676,-0.0656,-0.0656,-0.0655,-0.0603,-0.0602,-0.0601,-0.0563,-0.0563,-0.0563,-0.0562,-0.0448,-0.0444,-0.0441,0,0,0,0,0,0,0,0,0,0,0,0,0,-0.0648,-0.0676,-0.0656,-0.0631,-0.0629,-0.0603,-0.0602,-0.0601,-0.0563,-0.0563,-0.0563,-0.0562,-0.0449,-0.0444,-0.044,-0.0417,0,0,-0.0426,-0.0425,0,0,0,0,0,0,0,0,-0.065,-0.0647,-0.0636,-0.0633,-0.063,-0.0591,-0.0566,-0.0537,-0.0563,-0.0586,-0.0563,-0.0562,-0.049,-0.0483,-0.0471,-0.0411,-0.0406,-0.0426,-0.0423,-0.0421,-0.042,0,0,0,0,0,0,0,-0.0652,-0.0649,-0.0633,-0.0635,-0.0632,-0.0606,-0.0602,-0.056,-0.0537,-0.0584,-0.0582,-0.0579,-0.0488,-0.0476,-0.0468,-0.0405,-0.0426,-0.0422,-0.042,-0.0418,-0.0332,-0.0333,0,0,0,0,0,0,-0.0665,-0.0651,-0.0635,-0.0632,-0.0642,-0.0606,-0.0602,-0.0602,-0.0539,-0.053,-0.0579,-0.0577,-0.0483,-0.0473,-0.0464,-0.0447,-0.0422,-0.0417,-0.0415,-0.0332,-0.0332,-0.0333,0,0,0,0,0,0,-0.0666,-0.0664,-0.0637,-0.0641,-0.0636,-0.0607,-0.0607,-0.0601,-0.059,-0.0536,-0.0526,-0.0574,-0.0483,-0.047,-0.0435,-0.0442,-0.0415,-0.0411,-0.0331,-0.0332,-0.0333,-0.0404,0,0,0,0,0,0,-0.0667,-0.0665,-0.0669,-0.0643,-0.0637,-0.0632,-0.0607,-0.06,-0.0589,-0.0586,-0.0528,-0.0517,-0.0482,-0.0442,-0.0431,-0.0435,-0.0408,-0.0331,-0.0332,-0.0332,-0.0401,-0.0407,-0.0412,0,0,0,0,0,-0.0667,-0.0675,-0.067,-0.0668,-0.0644,-0.0632,-0.0627,-0.0603,-0.0589,-0.059,-0.0552,-0.0519,-0.0439,-0.0439,-0.0425,-0.0429,-0.0331,-0.0332,-0.0332,-0.0399,-0.0406,-0.0412,0,0,0,0,0,0,-0.0682,-0.0672,-0.0665,-0.0668,-0.0657,-0.0627,-0.0623,-0.0607,-0.0578,-0.0571,-0.052,-0.0507,-0.0478,-0.0444,-0.0446,-0.0407,-0.0381,-0.0379,-0.0436,-0.0442,-0.0447,-0.0474,-0.0404,0,0,0,0,0,-0.069,-0.0695,-0.0679,-0.0682,-0.0678,-0.0652,-0.0643,-0.0629,-0.06,-0.0587,-0.055,-0.0508,-0.0471,-0.0451,-0.0413,-0.0389,-0.0385,-0.0384,-0.0389,-0.0394,-0.0407,-0.0416,-0.0424,-0.0336,-0.0336,-0.0336,0,0,-0.0695,-0.0691,-0.0692,-0.0686,-0.0672,-0.0675,-0.0645,-0.0637,-0.0638,-0.0577,-0.0562,-0.0521,-0.0468,-0.0445,-0.043,-0.0418,-0.0417,-0.0395,-0.04,-0.041,-0.0418,-0.0427,-0.0435,-0.0336,-0.0336,-0.0336,0,0,-0.0712,-0.0706,-0.0718,-0.0715,-0.0706,-0.0691,-0.0692,-0.0669,-0.0656,-0.0636,-0.0595,-0.0567,-0.0507,-0.0481,-0.0457,-0.0469,-0.0444,-0.045,-0.0499,-0.0508,-0.0516,-0.0523,-0.0534,-0.0541,-0.0455,-0.0455,-0.0455,0,-0.0719,-0.0733,-0.0719,-0.0732,-0.0733,-0.0703,-0.0716,-0.0701,-0.0669,-0.0666,-0.0641,-0.0577,-0.0528,-0.051,-0.0512,-0.0482,-0.0485,-0.0479,-0.0518,-0.0524,-0.053,-0.0539,-0.0547,-0.0459,-0.0458,-0.0458,-0.0458,0,-0.0748,-0.076,-0.0766,-0.0777,-0.0775,-0.0779,-0.0763,-0.076,-0.0738,-0.0723,-0.0702,-0.0644,-0.0611,-0.0588,-0.0548,-0.0562,-0.0551,-0.0524,-0.0507,-0.0544,-0.0551,-0.0557,-0.0464,-0.0463,-0.0462,-0.0461,0,0,-0.0761,-0.0783,-0.0786,-0.0803,-0.0799,-0.0803,-0.0809,-0.0809,-0.0817,-0.0786,-0.0795,-0.0734,-0.071,-0.0681,-0.0633,-0.0635,-0.067,-0.0602,-0.0601,-0.0624,-0.0699,-0.0632,-0.0632,-0.0654,-0.0655,-0.0656,-0.069,0,-0.0788,-0.0826,-0.0826,-0.0859,-0.0877,-0.0863,-0.0872,-0.0869,-0.0853,-0.0856,-0.0814,-0.0794,-0.0743,-0.0723,-0.0722,-0.0675,-0.0689,-0.0663,-0.065,-0.065,-0.0595,-0.0638,-0.0518,-0.0532,-0.0696,-0.0697,-0.0697,0,-0.0817,-0.0841,-0.088,-0.0909,-0.0914,-0.0928,-0.0943,-0.0947,-0.0945,-0.0931,-0.092,-0.0883,-0.0871,-0.082,-0.08,-0.0788,-0.0758,-0.0728,-0.0728,-0.0647,-0.0595,-0.0519,-0.0537,-0.0396,-0.0707,-0.0706,-0.0705,0,-0.084,-0.0878,-0.0912,-0.0922,-0.0948,-0.0964,-0.0972,-0.0975,-0.0988,-0.0984,-0.099,-0.0969,-0.095,-0.0926,-0.0853,-0.0836,-0.0834,-0.08,-0.0721,-0.0716,-0.0601,-0.0583,-0.0488,-0.0809,-0.0808,-0.0808,-0.0808,0,-0.0869,-0.0896,-0.0929,-0.0951,-0.0998,-0.0996,-0.1038,-0.1039,-0.1049,-0.1076,-0.1033,-0.1044,-0.0976,-0.0954,-0.0899,-0.0829,-0.0875,-0.0745,-0.0724,-0.0621,-0.0605,-0.0464,-0.0416,-0.081,-0.0809,-0.0809,-0.0809,0,-0.0887,-0.0907,-0.0958,-0.0998,-0.1015,-0.1049,-0.109,-0.1118,-0.111,-0.1145,-0.1148,-0.1115,-0.108,-0.101,-0.0958,-0.0874,-0.0728,-0.0785,-0.0666,-0.063,-0.0407,-0.0369,-0.0316,-0.025,-0.0711,-0.071,-0.0709,0,-0.0896,-0.0925,-0.1,-0.1044,-0.1067,-0.1115,-0.1151,-0.1156,-0.1184,-0.1192,-0.1215,-0.1181,-0.1164,-0.1052,-0.088,-0.0772,-0.0693,-0.0601,-0.0538,-0.039,-0.0332,-0.0332,-0.028,-0.042,-0.0417,-0.0414,-0.0411,0,-0.0916,-0.0949,-0.0998,-0.1094,-0.1149,-0.1212,-0.1258,-0.1291,-0.1296,-0.1309,-0.1327,-0.1313,-0.1149,-0.0949,-0.0758,-0.0672,-0.0464,-0.0539,-0.0413,-0.0124,-0.0092,-0.0018,-0.0412,-0.0386,-0.0389,-0.0391,-0.0392,-0.0393,-0.0934,-0.098,-0.1057,-0.1145,-0.1221,-0.1301,-0.1333,-0.137,-0.1411,-0.1385,-0.1381,-0.1229,-0.0937,-0.0638,-0.055,-0.0186,-0.0292,-0.0071,-0.005,-0.0075,0.0037,-0.0306,-0.0234,-0.0235,-0.0237,-0.0238,-0.0239,0,-0.0953,-0.101,-0.1099,-0.1211,-0.1296,-0.1321,-0.1396,-0.1393,-0.1422,-0.1315,-0.1277,-0.0821,-0.0546,-0.0243,0.0187,0.0327,0.0336,0.0377,0.0429,0.0447,0.0141,0.0209,0.0416,0.0416,0.0416,0.0415,0.0415,0.0415,-0.0967,-0.1044,-0.1095,-0.1242,-0.1316,-0.1374,-0.1401,-0.1391,-0.1289,-0.1041,-0.0699,-0.0454,-0.0004,0.0419,0.0762,0.0779,0.0864,0.0833,0.0821,0.0667,0.0627,0.059,0.0667,0.0967,0.0967,0.1163,0.1165,0.1167]}],[{"header":{"parameterUnit":"m.s-1","parameterCategory":2,"la1":30.2991,"la2":30.254,"lo1":-89.0895,"lo2":-89.0444,"dy":0.0017,"dx":0.0017,"nx":28,"ny":28,"refTime":"2023-09-25T21:00:00:Z","depth":"2","parameterNumber":2,"parameterNumberName":"U-component_of_CURRENTS"},"data":[0,0,0,0,0,0,0,0,0,0,0,0,0,0,0,0,0,0,0,0,0,0,0,0,0,0,0,0,0,0,0,0,0,0,0,0,0,0,0,0,0,0,0,0,0,0,0,0,0,0,0,0,0,0,0,0,0,0,-0.1141,-0.1141,0,-0.1118,-0.1118,-0.1117,-0.1151,-0.1153,-0.1154,-0.1156,-0.1132,-0.113,-0.1129,0,0,0,0,0,0,0,0,0,0,0,0,0,-0.118,-0.1179,-0.1141,-0.1141,-0.114,-0.1118,-0.1118,-0.1117,-0.1151,-0.1153,-0.1155,-0.1156,-0.1133,-0.1131,-0.1128,0,0,0,0,0,0,0,0,0,0,0,0,0,-0.1159,-0.1179,-0.1141,-0.1156,-0.1158,-0.1118,-0.1118,-0.1117,-0.1151,-0.1153,-0.1155,-0.1157,-0.1134,-0.1131,-0.1128,-0.1068,0,0,-0.1119,-0.1118,0,0,0,0,0,0,0,0,-0.116,-0.1157,-0.1154,-0.1155,-0.1157,-0.1142,-0.1123,-0.1102,-0.115,-0.1151,-0.1156,-0.1158,-0.1135,-0.1132,-0.112,-0.1067,-0.1066,-0.1119,-0.1117,-0.1116,-0.1115,0,0,0,0,0,0,0,-0.1161,-0.1158,-0.1129,-0.1154,-0.1156,-0.1154,-0.1153,-0.1119,-0.113,-0.1151,-0.1154,-0.1155,-0.1136,-0.1123,-0.112,-0.1066,-0.1119,-0.1117,-0.1115,-0.1114,-0.1031,-0.1031,0,0,0,0,0,0,-0.1168,-0.1159,-0.113,-0.1129,-0.1166,-0.1152,-0.1151,-0.1143,-0.113,-0.1131,-0.1153,-0.1156,-0.1127,-0.1123,-0.1119,-0.1125,-0.1116,-0.1113,-0.1112,-0.1032,-0.1031,-0.103,0,0,0,0,0,0,-0.1169,-0.1165,-0.1131,-0.1146,-0.1142,-0.1149,-0.1139,-0.1141,-0.1146,-0.1132,-0.1133,-0.1159,-0.1128,-0.1123,-0.111,-0.1122,-0.1112,-0.1109,-0.1032,-0.1031,-0.1031,-0.1087,0,0,0,0,0,0,-0.117,-0.1165,-0.116,-0.1146,-0.1142,-0.1125,-0.1138,-0.1139,-0.1143,-0.1148,-0.1137,-0.1136,-0.113,-0.1115,-0.1107,-0.1118,-0.1107,-0.1033,-0.1032,-0.1031,-0.1086,-0.1088,-0.109,0,0,0,0,0,-0.1171,-0.1149,-0.1159,-0.1156,-0.1134,-0.1125,-0.1123,-0.1133,-0.1142,-0.1145,-0.114,-0.1138,-0.1104,-0.1112,-0.1103,-0.1113,-0.1033,-0.1032,-0.1031,-0.1085,-0.1088,-0.109,0,0,0,0,0,0,-0.116,-0.115,-0.1161,-0.1138,-0.1144,-0.1133,-0.1126,-0.1134,-0.1129,-0.1134,-0.1126,-0.1124,-0.1115,-0.1096,-0.1105,-0.1084,-0.1069,-0.1066,-0.1113,-0.1115,-0.1117,-0.1152,-0.1105,0,0,0,0,0,-0.1155,-0.1135,-0.1142,-0.1122,-0.1127,-0.1128,-0.1124,-0.1135,-0.1129,-0.113,-0.1128,-0.1114,-0.1096,-0.1096,-0.1072,-0.1056,-0.1083,-0.1056,-0.1059,-0.1061,-0.1082,-0.1131,-0.1141,-0.1027,-0.1027,-0.1027,0,0,-0.1143,-0.1135,-0.1124,-0.1119,-0.1119,-0.113,-0.1131,-0.1129,-0.1143,-0.1124,-0.1135,-0.1116,-0.109,-0.1082,-0.1076,-0.1076,-0.1107,-0.106,-0.1062,-0.1082,-0.1131,-0.1143,-0.1153,-0.1026,-0.1026,-0.1027,0,0,-0.1117,-0.1108,-0.1097,-0.1107,-0.1115,-0.112,-0.1126,-0.1131,-0.1143,-0.1143,-0.1135,-0.1126,-0.1102,-0.1095,-0.1084,-0.1077,-0.111,-0.107,-0.1122,-0.1169,-0.1181,-0.1191,-0.1249,-0.1264,-0.1081,-0.1081,-0.1082,0,-0.1113,-0.1101,-0.1093,-0.1101,-0.1115,-0.1123,-0.114,-0.1142,-0.1146,-0.1162,-0.1158,-0.1143,-0.1109,-0.1116,-0.1117,-0.1085,-0.1134,-0.1118,-0.1178,-0.1188,-0.1198,-0.1255,-0.1271,-0.1084,-0.1084,-0.1083,-0.1083,0,-0.109,-0.1097,-0.109,-0.1108,-0.1121,-0.1127,-0.115,-0.1164,-0.1178,-0.1194,-0.121,-0.1176,-0.1182,-0.1159,-0.1136,-0.118,-0.12,-0.1172,-0.1183,-0.1214,-0.127,-0.1286,-0.1088,-0.1087,-0.1086,-0.1085,0,0,-0.105,-0.1074,-0.1077,-0.1106,-0.1131,-0.1143,-0.1168,-0.1203,-0.1246,-0.1245,-0.1303,-0.1251,-0.1262,-0.1249,-0.1224,-0.1259,-0.1345,-0.1259,-0.126,-0.1339,-0.1488,-0.142,-0.1431,-0.1353,-0.1355,-0.1357,-0.1506,0,-0.1048,-0.1068,-0.1082,-0.1123,-0.1144,-0.1176,-0.121,-0.1245,-0.1277,-0.1333,-0.132,-0.1347,-0.129,-0.1306,-0.1331,-0.1334,-0.1389,-0.1309,-0.1427,-0.1431,-0.1385,-0.1446,-0.1188,-0.1292,-0.1521,-0.1524,-0.1526,0,-0.1028,-0.1051,-0.1083,-0.1157,-0.1174,-0.1201,-0.128,-0.1314,-0.1383,-0.1416,-0.1453,-0.1462,-0.1489,-0.1444,-0.1506,-0.1472,-0.1497,-0.1504,-0.1509,-0.1441,-0.1391,-0.1293,-0.1312,-0.1552,-0.155,-0.1548,-0.1546,0,-0.1,-0.1058,-0.1086,-0.1106,-0.1181,-0.1214,-0.1262,-0.1335,-0.1379,-0.1477,-0.1528,-0.1575,-0.1602,-0.1639,-0.1637,-0.1597,-0.1735,-0.1669,-0.1641,-0.1638,-0.1435,-0.1408,-0.1753,-0.1753,-0.1752,-0.1752,-0.1751,0,-0.0982,-0.1016,-0.1079,-0.1093,-0.1158,-0.1218,-0.1293,-0.1353,-0.1446,-0.1513,-0.1569,-0.1623,-0.166,-0.1726,-0.172,-0.1738,-0.1802,-0.1679,-0.1678,-0.1444,-0.1418,-0.1644,-0.1629,-0.1757,-0.1756,-0.1755,-0.1754,0,-0.0948,-0.0979,-0.102,-0.1102,-0.1135,-0.118,-0.129,-0.1341,-0.1446,-0.1541,-0.1575,-0.1681,-0.1762,-0.1811,-0.1884,-0.183,-0.1858,-0.1858,-0.1591,-0.1554,-0.1712,-0.1698,-0.1832,-0.1831,-0.183,-0.1829,-0.1829,0,-0.0936,-0.0948,-0.1013,-0.1037,-0.1074,-0.1152,-0.1198,-0.1312,-0.1365,-0.1555,-0.1585,-0.1725,-0.1783,-0.188,-0.1821,-0.1842,-0.1902,-0.1623,-0.1465,-0.1739,-0.1724,-0.1711,-0.1699,-0.1228,-0.1223,-0.1219,-0.1215,0,-0.0922,-0.0931,-0.096,-0.1004,-0.1042,-0.109,-0.1169,-0.1204,-0.1348,-0.1441,-0.1566,-0.1645,-0.1739,-0.1617,-0.1655,-0.1618,-0.1586,-0.1531,-0.1913,-0.1238,-0.1178,-0.116,-0.1167,-0.1175,-0.1179,-0.1182,-0.1184,-0.1186,-0.0905,-0.0906,-0.0926,-0.0982,-0.1002,-0.1005,-0.1031,-0.1101,-0.1171,-0.1289,-0.143,-0.1454,-0.146,-0.1344,-0.132,-0.1269,-0.1389,-0.1251,-0.1261,-0.1277,-0.117,-0.111,-0.1077,-0.108,-0.1083,-0.1085,-0.1088,0,-0.0865,-0.0875,-0.0915,-0.0917,-0.0916,-0.0961,-0.0995,-0.0996,-0.1027,-0.1096,-0.1189,-0.1047,-0.0942,-0.098,-0.0808,-0.0811,-0.078,-0.0776,-0.0679,-0.0717,-0.0751,-0.0615,-0.0377,-0.0375,-0.0374,-0.0373,0,0,-0.0833,-0.0842,-0.087,-0.0851,-0.0854,-0.0811,-0.0818,-0.0814,-0.0812,-0.0814,-0.0774,-0.0842,-0.0851,-0.057,-0.0543,-0.0423,-0.0573,-0.0393,-0.0944,-0.086,-0.0893,-0.0987,-0.0816,0,0,0,0,0]},{"header":{"parameterUnit":"m.s-1","parameterCategory":2,"la1":30.2991,"la2":30.254,"lo1":-89.0895,"lo2":-89.0444,"dy":0.0017,"dx":0.0017,"nx":28,"ny":28,"refTime":"2023-09-25T21:00:00:Z","depth":"2","parameterNumber":3,"parameterNumberName":"V-component_of_CURRENTS"},"data":[0,0,0,0,0,0,0,0,0,0,0,0,0,0,0,0,0,0,0,0,0,0,0,0,0,0,0,0,0,0,0,0,0,0,0,0,0,0,0,0,0,0,0,0,0,0,0,0,0,0,0,0,0,0,0,0,0,0,0.0043,0.0044,0,0.0145,0.0146,0.0147,0.0157,0.0156,0.0155,0.0154,0.0218,0.0221,0.0224,0,0,0,0,0,0,0,0,0,0,0,0,0,-0.0043,-0.0042,0.0043,0.0044,0.0045,0.0145,0.0146,0.0148,0.0157,0.0156,0.0155,0.0153,0.0217,0.0221,0.0224,0,0,0,0,0,0,0,0,0,0,0,0,0,0.0021,-0.0041,0.0042,0.0062,0.0064,0.0145,0.0146,0.0148,0.0158,0.0156,0.0154,0.0153,0.0216,0.022,0.0224,0.0283,0,0,0.0237,0.0239,0,0,0,0,0,0,0,0,0.0017,0.0024,0.0057,0.006,0.0064,0.0136,0.014,0.0191,0.0158,0.0123,0.0154,0.0152,0.0188,0.0195,0.0219,0.0286,0.0289,0.0237,0.024,0.0242,0.0243,0,0,0,0,0,0,0,0.0012,0.002,0.0083,0.0059,0.0063,0.01,0.0106,0.015,0.0163,0.0126,0.0126,0.0138,0.0189,0.0215,0.022,0.029,0.0237,0.0241,0.0243,0.0245,0.0412,0.0414,0,0,0,0,0,0,-0.0004,0.0016,0.008,0.0087,0.0035,0.0102,0.011,0.0115,0.0164,0.017,0.0139,0.0138,0.0209,0.0215,0.0222,0.0275,0.0242,0.0245,0.0248,0.041,0.0413,0.0415,0,0,0,0,0,0,-0.0007,0.0,0.0076,0.0053,0.0065,0.0105,0.0112,0.0118,0.013,0.0174,0.0179,0.0143,0.0207,0.0217,0.0262,0.0277,0.0247,0.0251,0.0408,0.0411,0.0414,0.0392,0,0,0,0,0,0,-0.001,-0.0001,-0.0006,0.0052,0.0066,0.0121,0.0113,0.0121,0.014,0.0139,0.018,0.0185,0.0207,0.0256,0.0266,0.0283,0.0254,0.0405,0.0409,0.0413,0.039,0.0394,0.0397,0,0,0,0,0,-0.0013,-0.0012,-0.0007,0.0001,0.0059,0.0122,0.0133,0.0156,0.0142,0.0158,0.0184,0.0183,0.0287,0.0261,0.0273,0.029,0.0404,0.0408,0.0412,0.0389,0.0393,0.0397,0,0,0,0,0,0,-0.005,-0.0009,-0.0002,0.001,0.006,0.0123,0.0135,0.0153,0.0188,0.0176,0.0208,0.0217,0.0265,0.029,0.026,0.0354,0.0346,0.0353,0.0324,0.0328,0.0332,0.0303,0.0258,0,0,0,0,0,-0.006,-0.0051,0.0004,0.0016,0.0034,0.0082,0.0106,0.0126,0.0168,0.018,0.0211,0.0249,0.0299,0.0318,0.0365,0.0415,0.0425,0.0437,0.0441,0.0443,0.0431,0.0473,0.0478,0.0429,0.0429,0.0429,0,0,-0.0069,-0.0046,-0.004,0.0009,0.0041,0.0087,0.0092,0.0127,0.0162,0.0183,0.0227,0.0262,0.0317,0.0372,0.0396,0.0388,0.0464,0.0449,0.045,0.0436,0.0478,0.0482,0.0486,0.0432,0.0432,0.0431,0,0,-0.007,-0.0066,-0.0052,-0.001,0.0039,0.0077,0.0084,0.0144,0.016,0.0221,0.0241,0.0275,0.036,0.039,0.042,0.0473,0.0483,0.05,0.0488,0.053,0.0533,0.0536,0.055,0.0554,0.0498,0.0498,0.0498,0,-0.0085,-0.0058,-0.0035,0.0,0.003,0.007,0.0105,0.0146,0.0214,0.0224,0.0231,0.0334,0.0367,0.0426,0.0444,0.0475,0.0497,0.0461,0.0529,0.0533,0.0536,0.055,0.0555,0.0498,0.0498,0.0498,0.0498,0,-0.0062,-0.0038,-0.0025,0.0027,0.0065,0.0102,0.0159,0.0184,0.0206,0.0245,0.0297,0.035,0.0401,0.0429,0.0453,0.0501,0.0508,0.0526,0.0506,0.0539,0.0552,0.0558,0.0497,0.0497,0.0497,0.0498,0,0,-0.0101,-0.0027,-0.0023,0.0001,0.0078,0.0108,0.0156,0.0209,0.0221,0.0285,0.0312,0.0389,0.0395,0.0429,0.0462,0.0495,0.0532,0.0518,0.0521,0.0508,0.0612,0.0585,0.0588,0.0569,0.057,0.0571,0.0609,0,-0.009,-0.0038,0.0002,0.0057,0.0091,0.0134,0.0173,0.0219,0.0259,0.0298,0.034,0.0384,0.0406,0.0419,0.0462,0.0519,0.0548,0.0519,0.0603,0.0605,0.0557,0.0594,0.0573,0.0602,0.0614,0.0615,0.0615,0,-0.0078,-0.0045,0.0,0.0057,0.007,0.0104,0.014,0.0184,0.0244,0.0268,0.0313,0.0357,0.0409,0.0426,0.0521,0.0506,0.0553,0.0593,0.0596,0.0577,0.0588,0.0577,0.0612,0.0625,0.0624,0.0623,0.0623,0,-0.0119,-0.0048,-0.0024,0.0003,0.0077,0.008,0.0107,0.0161,0.0175,0.0239,0.025,0.0337,0.0357,0.0448,0.0518,0.0531,0.0617,0.0647,0.0662,0.066,0.0659,0.0654,0.071,0.071,0.071,0.071,0.071,0,-0.0116,-0.0097,-0.005,-0.0033,-0.0025,0.0034,0.0038,0.0075,0.0118,0.0126,0.0216,0.0236,0.0365,0.043,0.0516,0.0592,0.0614,0.0656,0.0672,0.0652,0.0646,0.0681,0.0677,0.0711,0.0711,0.0711,0.071,0,-0.0153,-0.0115,-0.0089,-0.0044,-0.004,-0.0041,-0.0019,-0.0017,0.0026,0.0041,0.0053,0.0155,0.0225,0.0338,0.0469,0.0559,0.0653,0.067,0.0618,0.0627,0.0671,0.0667,0.0711,0.0711,0.071,0.071,0.071,0,-0.0163,-0.0156,-0.0127,-0.013,-0.0115,-0.0112,-0.0118,-0.0074,-0.0074,-0.0016,-0.0019,0.0052,0.01,0.0274,0.0427,0.0562,0.0589,0.0644,0.0667,0.0663,0.0674,0.067,0.0666,0.0661,0.066,0.0659,0.0659,0,-0.0191,-0.0194,-0.0182,-0.0198,-0.0208,-0.0206,-0.0212,-0.0226,-0.0183,-0.0167,-0.0136,-0.0091,0.0056,0.0213,0.0388,0.0476,0.0628,0.0636,0.0664,0.0654,0.0616,0.0627,0.0624,0.0654,0.0654,0.0655,0.0655,0.0655,-0.0234,-0.0239,-0.0247,-0.0272,-0.0275,-0.0295,-0.033,-0.0329,-0.0337,-0.0313,-0.0238,-0.0133,0.0044,0.0288,0.0388,0.0516,0.0551,0.0641,0.0643,0.0646,0.0623,0.0586,0.0613,0.0613,0.0613,0.0614,0.0614,0,-0.0272,-0.0289,-0.0319,-0.0334,-0.0371,-0.036,-0.039,-0.0422,-0.045,-0.0361,-0.032,-0.0118,0.0075,0.024,0.0434,0.0553,0.0552,0.0566,0.057,0.0575,0.058,0.0554,0.0525,0.0525,0.0525,0.0524,0,0,-0.0289,-0.0333,-0.0359,-0.0434,-0.0453,-0.0509,-0.0543,-0.0561,-0.0506,-0.0452,-0.032,-0.013,0.0122,0.0248,0.0368,0.0452,0.0471,0.0442,0.051,0.0504,0.0506,0.063,0.0597,0,0,0,0,0]}],[{"header":{"parameterUnit":"m.s-1","parameterCategory":2,"la1":30.2991,"la2":30.254,"lo1":-89.0895,"lo2":-89.0444,"dy":0.0017,"dx":0.0017,"nx":28,"ny":28,"refTime":"2023-09-25T21:00:00:Z","depth":"4","parameterNumber":2,"parameterNumberName":"U-component_of_CURRENTS"},"data":[0,0,0,0,0,0,0,0,0,0,0,0,0,0,0,0,0,0,0,0,0,0,0,0,0,0,0,0,0,0,0,0,0,0,0,0,0,0,0,0,0,0,0,0,0,0,0,0,0,0,0,0,0,0,0,0,0,0,-0.0533,-0.0533,0,-0.057,-0.0571,-0.0571,-0.0596,-0.0596,-0.0596,-0.0596,-0.0665,-0.0667,-0.0669,0,0,0,0,0,0,0,0,0,0,0,0,0,-0.0494,-0.0495,-0.0533,-0.0533,-0.0534,-0.057,-0.0571,-0.0571,-0.0596,-0.0596,-0.0596,-0.0596,-0.0664,-0.0666,-0.0669,0,0,0,0,0,0,0,0,0,0,0,0,0,-0.0521,-0.0495,-0.0533,-0.0549,-0.055,-0.057,-0.0571,-0.0572,-0.0596,-0.0596,-0.0596,-0.0596,-0.0664,-0.0666,-0.0669,-0.0687,0,0,-0.0678,-0.0679,0,0,0,0,0,0,0,0,-0.0519,-0.0523,-0.0546,-0.0548,-0.0549,-0.0577,-0.0582,-0.0611,-0.0596,-0.0581,-0.0596,-0.0596,-0.0637,-0.0642,-0.0652,-0.069,-0.0693,-0.0678,-0.0679,-0.0681,-0.0681,0,0,0,0,0,0,0,-0.0517,-0.0521,-0.055,-0.0546,-0.0548,-0.0557,-0.0561,-0.0588,-0.0611,-0.0583,-0.0584,-0.0584,-0.0638,-0.0649,-0.0654,-0.0694,-0.0678,-0.068,-0.0682,-0.0683,-0.0729,-0.0728,0,0,0,0,0,0,-0.0508,-0.052,-0.0549,-0.0551,-0.0531,-0.0558,-0.0562,-0.057,-0.061,-0.0616,-0.0584,-0.0585,-0.0644,-0.065,-0.0656,-0.0695,-0.0681,-0.0683,-0.0685,-0.0729,-0.0729,-0.0728,0,0,0,0,0,0,-0.0507,-0.0511,-0.0547,-0.0534,-0.0539,-0.0558,-0.0567,-0.057,-0.0593,-0.0611,-0.0617,-0.0604,-0.0644,-0.0652,-0.0665,-0.0697,-0.0684,-0.0687,-0.073,-0.0729,-0.0728,-0.0763,0,0,0,0,0,0,-0.0506,-0.051,-0.0515,-0.0533,-0.0539,-0.0564,-0.0566,-0.0571,-0.0592,-0.0594,-0.063,-0.0635,-0.0645,-0.066,-0.0667,-0.0701,-0.0689,-0.073,-0.0729,-0.0729,-0.0762,-0.0763,-0.0764,0,0,0,0,0,-0.0505,-0.0516,-0.0515,-0.0519,-0.0545,-0.0564,-0.0568,-0.0583,-0.0593,-0.0604,-0.061,-0.0635,-0.066,-0.0662,-0.0671,-0.0706,-0.0731,-0.073,-0.0729,-0.0762,-0.0763,-0.0764,0,0,0,0,0,0,-0.05,-0.052,-0.052,-0.0536,-0.0547,-0.0567,-0.058,-0.0592,-0.0608,-0.061,-0.063,-0.0635,-0.066,-0.0666,-0.0667,-0.071,-0.07,-0.0701,-0.0723,-0.0724,-0.0725,-0.0722,-0.0692,0,0,0,0,0,-0.0499,-0.0518,-0.0529,-0.0542,-0.0549,-0.0567,-0.0578,-0.0587,-0.0601,-0.061,-0.0635,-0.065,-0.0662,-0.0678,-0.0689,-0.0717,-0.0708,-0.0741,-0.0742,-0.0743,-0.0742,-0.073,-0.0731,-0.0725,-0.0725,-0.0725,0,0,-0.0492,-0.0514,-0.0517,-0.0542,-0.0555,-0.0571,-0.0575,-0.0594,-0.0614,-0.0615,-0.0655,-0.0659,-0.0666,-0.069,-0.0703,-0.0702,-0.0741,-0.0742,-0.0743,-0.0742,-0.073,-0.073,-0.0731,-0.0724,-0.0724,-0.0724,0,0,-0.0501,-0.0516,-0.0532,-0.0549,-0.057,-0.058,-0.0588,-0.0615,-0.0634,-0.0658,-0.0659,-0.0668,-0.0708,-0.071,-0.0716,-0.0728,-0.0744,-0.0744,-0.076,-0.0749,-0.075,-0.075,-0.075,-0.075,-0.075,-0.075,-0.075,0,-0.0494,-0.0519,-0.0537,-0.0563,-0.0579,-0.0588,-0.0605,-0.0626,-0.0654,-0.0669,-0.0673,-0.0704,-0.0715,-0.0731,-0.0733,-0.0736,-0.0732,-0.0762,-0.0752,-0.0752,-0.0753,-0.0752,-0.0752,-0.0751,-0.0751,-0.0751,-0.0751,0,-0.051,-0.0535,-0.055,-0.0584,-0.0604,-0.0621,-0.0644,-0.067,-0.0692,-0.0707,-0.0734,-0.0734,-0.0748,-0.076,-0.0755,-0.0767,-0.0766,-0.0754,-0.0755,-0.0756,-0.0755,-0.0754,-0.0753,-0.0753,-0.0752,-0.0752,0,0,-0.0482,-0.0546,-0.0551,-0.0577,-0.0617,-0.0635,-0.0671,-0.07,-0.0723,-0.0748,-0.0774,-0.0789,-0.0784,-0.0787,-0.0786,-0.0781,-0.0784,-0.0774,-0.0773,-0.0784,-0.077,-0.0735,-0.0731,-0.0775,-0.0775,-0.0775,-0.0774,0,-0.0486,-0.0532,-0.0569,-0.0613,-0.0633,-0.0669,-0.0704,-0.0734,-0.0756,-0.0782,-0.0785,-0.0799,-0.0797,-0.0799,-0.0797,-0.0783,-0.0782,-0.0786,-0.0758,-0.0757,-0.0734,-0.0728,-0.0774,-0.0773,-0.0773,-0.0773,-0.0773,0,-0.0488,-0.0521,-0.0559,-0.0634,-0.0648,-0.0681,-0.0733,-0.0764,-0.0795,-0.0811,-0.082,-0.0818,-0.0819,-0.0808,-0.0796,-0.0801,-0.0788,-0.0778,-0.0777,-0.073,-0.072,-0.0767,-0.0772,-0.0772,-0.0772,-0.0772,-0.0772,0,-0.0449,-0.0523,-0.0555,-0.0577,-0.0649,-0.0688,-0.0728,-0.0771,-0.0796,-0.0818,-0.0822,-0.0829,-0.0821,-0.0811,-0.0795,-0.0795,-0.0778,-0.0771,-0.0729,-0.0727,-0.0747,-0.0746,-0.0755,-0.0755,-0.0755,-0.0755,-0.0755,0,-0.0436,-0.047,-0.0546,-0.056,-0.0614,-0.0675,-0.0725,-0.0762,-0.0799,-0.0811,-0.0826,-0.0818,-0.0818,-0.0809,-0.0799,-0.0764,-0.078,-0.0729,-0.072,-0.0762,-0.0762,-0.0747,-0.0746,-0.0755,-0.0755,-0.0755,-0.0755,0,-0.0395,-0.0437,-0.0483,-0.0563,-0.0596,-0.0632,-0.0723,-0.0751,-0.0786,-0.0796,-0.0798,-0.0807,-0.0789,-0.0793,-0.0773,-0.0756,-0.0734,-0.0717,-0.0773,-0.0768,-0.0693,-0.0693,-0.0667,-0.0666,-0.0665,-0.0664,-0.0663,0,-0.0377,-0.039,-0.0472,-0.0495,-0.0539,-0.0608,-0.0653,-0.0728,-0.0749,-0.0778,-0.077,-0.0765,-0.0763,-0.0716,-0.0723,-0.0709,-0.0699,-0.0695,-0.0682,-0.0687,-0.0681,-0.0684,-0.0686,-0.0661,-0.0661,-0.066,-0.066,0,-0.0337,-0.0367,-0.04,-0.0436,-0.049,-0.0566,-0.0635,-0.0647,-0.0714,-0.074,-0.0722,-0.0709,-0.0689,-0.0678,-0.0674,-0.0662,-0.0703,-0.0683,-0.0685,-0.0673,-0.068,-0.0675,-0.0679,-0.0656,-0.0657,-0.0657,-0.0657,0,-0.0308,-0.0316,-0.0344,-0.0381,-0.0442,-0.0511,-0.0565,-0.0607,-0.0642,-0.0677,-0.0664,-0.0663,-0.0675,-0.0652,-0.0647,-0.0636,-0.0623,-0.0612,-0.0617,-0.0622,-0.0607,-0.0609,-0.0552,0,0,0,0,0,-0.0276,-0.0273,-0.0292,-0.0341,-0.0401,-0.0451,-0.0544,-0.0596,-0.0651,-0.0623,-0.0648,-0.0627,-0.0608,-0.061,-0.0587,-0.0625,-0.0629,-0.0597,-0.062,-0.0634,-0.0639,-0.0625,0,0,0,0,0,0,-0.0249,-0.0258,-0.0266,-0.0297,-0.0331,-0.0414,-0.0482,-0.0534,-0.0532,-0.0571,-0.0563,-0.0586,-0.0576,-0.0598,-0.0566,-0.0569,-0.0575,-0.0604,-0.0602,-0.0631,-0.0635,-0.0639,-0.0627,0,0,0,0,0]},{"header":{"parameterUnit":"m.s-1","parameterCategory":2,"la1":30.2991,"la2":30.254,"lo1":-89.0895,"lo2":-89.0444,"dy":0.0017,"dx":0.0017,"nx":28,"ny":28,"refTime":"2023-09-25T21:00:00:Z","depth":"4","parameterNumber":3,"parameterNumberName":"V-component_of_CURRENTS"},"data":[0,0,0,0,0,0,0,0,0,0,0,0,0,0,0,0,0,0,0,0,0,0,0,0,0,0,0,0,0,0,0,0,0,0,0,0,0,0,0,0,0,0,0,0,0,0,0,0,0,0,0,0,0,0,0,0,0,0,-0.0183,-0.0183,0,-0.0168,-0.0168,-0.0168,-0.0156,-0.0156,-0.0156,-0.0156,-0.0129,-0.0128,-0.0127,0,0,0,0,0,0,0,0,0,0,0,0,0,-0.015,-0.015,-0.0183,-0.0183,-0.0183,-0.0168,-0.0168,-0.0168,-0.0156,-0.0156,-0.0156,-0.0156,-0.0129,-0.0128,-0.0127,0,0,0,0,0,0,0,0,0,0,0,0,0,-0.0151,-0.0151,-0.0183,-0.0177,-0.0176,-0.0169,-0.0168,-0.0168,-0.0156,-0.0156,-0.0156,-0.0156,-0.0129,-0.0128,-0.0127,-0.012,0,0,-0.0124,-0.0123,0,0,0,0,0,0,0,0,-0.0151,-0.0153,-0.0178,-0.0177,-0.0176,-0.0165,-0.0146,-0.0152,-0.0156,-0.0162,-0.0156,-0.0156,-0.0141,-0.0139,-0.0134,-0.0119,-0.0118,-0.0124,-0.0123,-0.0123,-0.0122,0,0,0,0,0,0,0,-0.0151,-0.0153,-0.0176,-0.0178,-0.0177,-0.0156,-0.0157,-0.0147,-0.0151,-0.0162,-0.0161,-0.0162,-0.014,-0.0135,-0.0134,-0.0118,-0.0124,-0.0123,-0.0122,-0.0122,-0.0104,-0.0104,0,0,0,0,0,0,-0.0159,-0.0153,-0.0177,-0.0176,-0.0165,-0.0157,-0.0158,-0.0168,-0.0151,-0.0149,-0.0162,-0.0161,-0.0137,-0.0135,-0.0133,-0.0101,-0.0123,-0.0122,-0.0121,-0.0104,-0.0104,-0.0104,0,0,0,0,0,0,-0.0158,-0.0161,-0.0177,-0.0164,-0.0165,-0.0158,-0.0169,-0.0168,-0.0166,-0.0151,-0.0148,-0.0163,-0.0137,-0.0134,-0.0135,-0.0101,-0.0121,-0.012,-0.0104,-0.0104,-0.0104,-0.0054,0,0,0,0,0,0,-0.0157,-0.0161,-0.0173,-0.0165,-0.0166,-0.0178,-0.0169,-0.0167,-0.0167,-0.0166,-0.0151,-0.0148,-0.0137,-0.0137,-0.0134,-0.01,-0.0119,-0.0103,-0.0104,-0.0104,-0.0055,-0.0052,-0.005,0,0,0,0,0,-0.0156,-0.017,-0.0173,-0.0176,-0.0182,-0.0178,-0.0177,-0.017,-0.0167,-0.0169,-0.0164,-0.0149,-0.0136,-0.0136,-0.0133,-0.0098,-0.0103,-0.0104,-0.0104,-0.0056,-0.0053,-0.005,0,0,0,0,0,0,-0.016,-0.017,-0.0174,-0.019,-0.0188,-0.0177,-0.0178,-0.0174,-0.017,-0.0171,-0.0156,-0.0153,-0.0138,-0.0139,-0.0139,-0.0099,-0.0115,-0.0115,-0.008,-0.0077,-0.0074,-0.0056,-0.0118,0,0,0,0,0,-0.0168,-0.0182,-0.0183,-0.0196,-0.0196,-0.0188,-0.0186,-0.0183,-0.0178,-0.0177,-0.0166,-0.0155,-0.0136,-0.0126,-0.0119,-0.01,-0.0088,-0.0077,-0.0074,-0.0072,-0.0058,-0.0025,-0.0017,-0.0106,-0.0106,-0.0106,0,0,-0.0175,-0.018,-0.019,-0.0197,-0.0194,-0.0191,-0.0187,-0.0187,-0.0173,-0.0174,-0.0157,-0.015,-0.0134,-0.0109,-0.0101,-0.0103,-0.0043,-0.0072,-0.0069,-0.0057,-0.0024,-0.0015,-0.0007,-0.0106,-0.0106,-0.0106,0,0,-0.0186,-0.0198,-0.021,-0.0207,-0.0206,-0.0199,-0.0201,-0.0194,-0.0178,-0.0171,-0.0156,-0.0128,-0.0123,-0.0081,-0.0063,-0.0044,-0.0035,-0.0054,-0.0012,0.002,0.0028,0.0036,0.0061,0.007,-0.0045,-0.0045,-0.0045,0,-0.0192,-0.021,-0.0211,-0.0213,-0.0209,-0.0203,-0.0203,-0.0183,-0.0175,-0.0152,-0.0166,-0.0118,-0.0096,-0.0033,-0.002,-0.0029,-0.0028,-0.0019,0.0027,0.0035,0.0042,0.0065,0.0075,-0.0043,-0.0043,-0.0043,-0.0043,0,-0.0208,-0.0219,-0.0222,-0.0224,-0.0216,-0.0218,-0.0193,-0.0176,-0.0163,-0.014,-0.0094,-0.0066,-0.0035,-0.0014,-0.0005,0.0062,0.004,0.0024,0.0028,0.0055,0.0076,0.0086,-0.0039,-0.004,-0.0041,-0.0041,0,0,-0.0227,-0.0235,-0.0236,-0.0236,-0.0223,-0.0218,-0.0182,-0.0146,-0.0121,-0.0092,-0.0056,0.0015,0.0027,0.0048,0.007,0.0117,0.0182,0.0093,0.0094,0.0134,0.0239,0.0227,0.0236,0.0163,0.0165,0.0167,0.0234,0,-0.0239,-0.0252,-0.0245,-0.0243,-0.0245,-0.0215,-0.0183,-0.0143,-0.0113,-0.0079,-0.001,0.0017,0.0052,0.0061,0.0121,0.0151,0.0208,0.0165,0.0193,0.0194,0.0194,0.0247,0.0173,0.0241,0.0244,0.0245,0.0246,0,-0.0254,-0.0259,-0.0267,-0.025,-0.0246,-0.024,-0.0189,-0.0159,-0.0091,-0.0069,-0.0011,0.0012,0.0104,0.0103,0.0218,0.0178,0.0222,0.0254,0.0257,0.0238,0.0201,0.0206,0.0263,0.0262,0.0261,0.026,0.0258,0,-0.0265,-0.027,-0.0278,-0.0274,-0.0254,-0.0238,-0.0218,-0.0157,-0.0128,-0.007,-0.0064,0.0034,0.0062,0.0143,0.0231,0.0211,0.0337,0.0312,0.0355,0.0354,0.0321,0.0312,0.0405,0.0405,0.0405,0.0405,0.0405,0,-0.0274,-0.0279,-0.029,-0.0291,-0.0288,-0.0259,-0.0237,-0.0201,-0.0156,-0.0126,-0.0067,-0.0035,0.0068,0.0147,0.0229,0.033,0.0342,0.0384,0.0381,0.0337,0.0329,0.0328,0.0318,0.0407,0.0407,0.0406,0.0406,0,-0.028,-0.029,-0.03,-0.0296,-0.0296,-0.0291,-0.0267,-0.0245,-0.0208,-0.0175,-0.0163,-0.0085,0.0019,0.0134,0.0263,0.0317,0.0417,0.0452,0.0408,0.0397,0.0409,0.0401,0.0495,0.0496,0.0496,0.0496,0.0497,0,-0.0283,-0.0292,-0.0314,-0.0325,-0.0329,-0.0322,-0.031,-0.0272,-0.0255,-0.0196,-0.0185,-0.0094,-0.0025,0.0155,0.0269,0.043,0.045,0.0488,0.0458,0.0437,0.0424,0.0415,0.0406,0.0497,0.0497,0.0497,0.0497,0,-0.0284,-0.0301,-0.0312,-0.0341,-0.035,-0.0349,-0.0339,-0.0336,-0.0282,-0.0261,-0.0192,-0.0099,0.0015,0.0153,0.0283,0.0397,0.0453,0.0492,0.0491,0.0463,0.044,0.0425,0.0416,0.0499,0.0498,0.0498,0.0498,0,-0.0287,-0.0303,-0.0327,-0.0344,-0.0367,-0.0374,-0.0363,-0.0334,-0.0308,-0.0249,-0.0223,-0.0096,-0.0019,0.0137,0.0262,0.0371,0.0383,0.0392,0.0397,0.0397,0.0346,0.0301,0.0336,0,0,0,0,0,-0.0283,-0.0297,-0.0323,-0.0346,-0.0373,-0.0381,-0.0378,-0.036,-0.0327,-0.0281,-0.0249,-0.0134,0.0038,0.0112,0.0221,0.0256,0.0395,0.0382,0.0406,0.0505,0.0504,0.046,0,0,0,0,0,0,-0.0282,-0.0307,-0.032,-0.0345,-0.0364,-0.038,-0.0382,-0.0358,-0.0326,-0.0286,-0.0188,-0.0131,0.0045,-0.0018,0.0217,0.025,0.0272,0.0471,0.0472,0.0506,0.0505,0.0504,0.0458,0,0,0,0,0]}]]